Weather in Poldnevoye

Russia / Astrakhan Oblast     45°51′06″N   47°57′21″E
temp.,
°C
wind,
m/s
gust,
m/s
humid.,
%
clouds,
%
prec.,
mm/h
press.,
hPa
HPBL,
m
1 march, mon
mon101:000nnw2381100 0.0 101967
04:000nw1181100 0.0 102021
07:000wsw2386100 0.0 102128
10:00+3nw357580 0.0 1023621
13:00+4wnw357397 0.0 1025612
16:00+5nw357295 0.1 1024685
19:00+3ssw228099 0.1 102532
22:00+2n119796 0.1 102677
2 march, tue
tue201:00+1ssw129697 0.0 102724
04:00+1wsw229590 0.0 102728
07:000wnw239690 0.0 102744
10:00+1wsw349691 0.1 1028224
13:00+3wsw5878100 0.1 1026727
16:00+4wsw587089 0.1 1024886
19:00+3wsw4969100 0.0 1022751
22:00+3wsw61171100 0.1 1021707
3 march, wed
wed301:00+3sw71374100 0.0 1019641
04:00+3sw71579100 0.0 1017711
07:00+3wsw81577100 0.0 1016870
10:00+3w91577100 0.1 1016989
13:00+4wsw101679100 0.1 10141144
16:00+3w91589100 0.6 1014888
19:00+2wnw8139399 0.2 1015778
22:00+1nw6117988 0.3 1018547
4 march, thu
thu401:000w512790 0.0 1019448
04:00−1nw5108122 0.1 1022699
07:00−2wnw4107964 0.0 1024533
10:00+1wnw585632 0.0 1027811
13:00+4w57510 0.0 1026920
16:00+4sw46500 0.0 1025967
19:00+1ssw59690 0.0 1024210
22:00+1ssw610670 0.0 1024228
5 march, fri
fri501:000ssw613720 0.0 1024326
04:00−1ssw511820 0.0 1023248
07:00−1ssw48880 0.0 1022171
10:00+3ssw59770 0.0 1023392
13:00+4ssw59740 0.0 1022473
16:00+4ssw58764 0.0 1021333
19:00+2s48820 0.0 1020198
22:00+2ssw36860 0.0 1021129